• In Österreich
  • Länderverzeichnis
  • Für 7 Tage
  • Wassertemperatur
  • Satellitenkarten
  • Wetterkarte
  • News
  • Widgets
  • user-avatar
    Anmelden

    Stündliche Wetter Prutz

    Heute, 12 Dezember, Dienstag

    Zeit Temperatur Niederschläge Wind Luftdruck Luftfeuchtigkeit
    00:00 -1°C° 2,9 mm 2 m/S 616 mmHg 96%
    01:00 -1°C° 0 mm 3 m/S 617 mmHg 96%
    02:00 -1°C° 2 mm 2 m/S 618 mmHg 96%
    03:00 -1°C° 2 mm 2 m/S 618 mmHg 96%
    04:00 -1°C° 2 mm 2 m/S 619 mmHg 96%
    05:00 -1°C° 1,1 mm 2 m/S 620 mmHg 96%
    06:00 -2°C° 1,1 mm 2 m/S 621 mmHg 96%
    07:00 -2°C° 1,1 mm 2 m/S 621 mmHg 96%
    08:00 -2°C° 0,6 mm 2 m/S 622 mmHg 96%
    09:00 -3°C° 0,6 mm 2 m/S 623 mmHg 95%
    10:00 -3°C° 0,6 mm 2 m/S 624 mmHg 95%
    11:00 -3°C° 0,4 mm 2 m/S 624 mmHg 94%
    12:00 -3°C° 0,4 mm 2 m/S 625 mmHg 93%
    13:00 -1°C° 0,4 mm 1 m/S 626 mmHg 92%
    14:00 -2°C° 0,4 mm 1 m/S 626 mmHg 93%
    15:00 -2°C° 0,4 mm 1 m/S 626 mmHg 94%
    16:00 -3°C° 0,4 mm 1 m/S 626 mmHg 95%
    17:00 -4°C° 0,4 mm 1 m/S 627 mmHg 95%
    18:00 -6°C° 0,4 mm 1 m/S 627 mmHg 95%
    19:00 -7°C° 0,4 mm 2 m/S 627 mmHg 95%
    20:00 -7°C° 0,3 mm 2 m/S 628 mmHg 95%
    21:00 -8°C° 0,3 mm 2 m/S 628 mmHg 95%
    22:00 -8°C° 0,3 mm 2 m/S 629 mmHg 94%
    23:00 -8°C° 0,1 mm 2 m/S 629 mmHg 94%

    Morgen, 13 Dezember, Mittwoch

    Zeit Temperatur Niederschläge Wind Luftdruck Luftfeuchtigkeit
    00:00 -7°C° 0,1 mm 1 m/S 629 mmHg 94%
    01:00 -8°C° 0,1 mm 1 m/S 629 mmHg 93%
    02:00 -9°C° 0 mm 1 m/S 629 mmHg 93%
    03:00 -10°C° 0 mm 1 m/S 629 mmHg 92%
    04:00 -11°C° 0 mm 1 m/S 628 mmHg 91%
    05:00 -12°C° 0 mm 1 m/S 628 mmHg 89%
    06:00 -14°C° 0 mm 2 m/S 628 mmHg 86%
    07:00 -15°C° 0 mm 2 m/S 628 mmHg 83%
    08:00 -13°C° 0 mm 2 m/S 629 mmHg 80%
    09:00 -10°C° 0 mm 2 m/S 630 mmHg 76%
    10:00 -9°C° 0 mm 2 m/S 630 mmHg 72%
    11:00 -7°C° 0 mm 2 m/S 630 mmHg 71%
    12:00 -5°C° 0 mm 2 m/S 630 mmHg 69%
    13:00 -3°C° 0 mm 2 m/S 630 mmHg 68%
    14:00 -4°C° 0 mm 2 m/S 629 mmHg 70%
    15:00 -5°C° 0 mm 2 m/S 629 mmHg 72%
    16:00 -6°C° 0 mm 2 m/S 628 mmHg 73%
    17:00 -7°C° 0 mm 3 m/S 628 mmHg 73%
    18:00 -7°C° 0 mm 3 m/S 628 mmHg 72%
    19:00 -7°C° 0 mm 3 m/S 628 mmHg 71%
    20:00 -7°C° 0 mm 3 m/S 627 mmHg 70%
    21:00 -7°C° 0 mm 3 m/S 627 mmHg 69%
    22:00 -9°C° 0 mm 4 m/S 626 mmHg 68%
    23:00 -8°C° 0,1 mm 4 m/S 626 mmHg 71%

    übermorgen, 14 Dezember, Donnerstag

    Zeit Temperatur Niederschläge Wind Luftdruck Luftfeuchtigkeit
    00:00 -7°C° 0,1 mm 4 m/S 626 mmHg 73%
    01:00 -7°C° 0,1 mm 4 m/S 626 mmHg 76%
    02:00 -7°C° 0 mm 4 m/S 626 mmHg 75%
    03:00 -7°C° 0 mm 4 m/S 625 mmHg 73%
    04:00 -6°C° 0 mm 3 m/S 625 mmHg 71%
    05:00 -6°C° 0,1 mm 3 m/S 625 mmHg 75%
    06:00 -5°C° 0,1 mm 3 m/S 625 mmHg 78%
    07:00 -5°C° 0,1 mm 3 m/S 625 mmHg 82%
    08:00 -4°C° 0,3 mm 3 m/S 625 mmHg 84%
    09:00 -4°C° 0,3 mm 3 m/S 625 mmHg 87%
    10:00 -2°C° 0,3 mm 2 m/S 625 mmHg 89%
    11:00 -2°C° 0,5 mm 2 m/S 625 mmHg 90%
    12:00 -1°C° 0,5 mm 2 m/S 624 mmHg 92%
    13:00 -1°C° 0,5 mm 2 m/S 624 mmHg 93%
    14:00 -1°C° 0,3 mm 2 m/S 624 mmHg 93%
    15:00 -2°C° 0,3 mm 2 m/S 623 mmHg 92%
    16:00 -2°C° 0,3 mm 2 m/S 623 mmHg 91%
    17:00 -2°C° 0,2 mm 2 m/S 622 mmHg 90%
    18:00 -4°C° 0,2 mm 3 m/S 621 mmHg 89%
    19:00 -5°C° 0,2 mm 3 m/S 621 mmHg 88%
    20:00 -5°C° 0,1 mm 3 m/S 620 mmHg 86%
    21:00 -5°C° 0,1 mm 4 m/S 620 mmHg 85%
    22:00 -5°C° 0,1 mm 4 m/S 620 mmHg 83%
    23:00 -5°C° 0,7 mm 4 m/S 620 mmHg 86%

    15 Dezember, Freitag

    Zeit Temperatur Niederschläge Wind Luftdruck Luftfeuchtigkeit
    00:00 -5°C° 0,7 mm 3 m/S 620 mmHg 89%
    01:00 -5°C° 0,7 mm 3 m/S 620 mmHg 92%
    02:00 -4°C° 1,1 mm 2 m/S 620 mmHg 93%
    03:00 -4°C° 1,1 mm 2 m/S 620 mmHg 95%
    04:00 -4°C° 1,1 mm 2 m/S 620 mmHg 96%
    05:00 -5°C° 0,6 mm 2 m/S 620 mmHg 95%
    06:00 -5°C° 0,6 mm 2 m/S 620 mmHg 95%
    07:00 -5°C° 0,6 mm 2 m/S 620 mmHg 95%
    08:00 -5°C° 0,4 mm 2 m/S 620 mmHg 94%
    09:00 -5°C° 0,4 mm 2 m/S 620 mmHg 93%
    10:00 -5°C° 0,4 mm 2 m/S 620 mmHg 91%
    11:00 -5°C° 0,1 mm 2 m/S 620 mmHg 89%
    12:00 -4°C° 0,1 mm 2 m/S 620 mmHg 86%
    13:00 -4°C° 0,1 mm 2 m/S 620 mmHg 83%
    14:00 -5°C° 0 mm 2 m/S 619 mmHg 85%
    15:00 -4°C° 0 mm 1 m/S 619 mmHg 86%
    16:00 -6°C° 0 mm 1 m/S 618 mmHg 88%
    17:00 -7°C° 0,1 mm 2 m/S 619 mmHg 86%
    18:00 -8°C° 0,1 mm 2 m/S 619 mmHg 85%
    19:00 -8°C° 0,1 mm 2 m/S 620 mmHg 83%
    20:00 -9°C° 0 mm 2 m/S 620 mmHg 84%
    21:00 -10°C° 0 mm 2 m/S 620 mmHg 85%
    22:00 -10°C° 0 mm 2 m/S 620 mmHg 87%
    23:00 -12°C° 0,1 mm 2 m/S 620 mmHg 84%

    16 Dezember, Samstag

    Zeit Temperatur Niederschläge Wind Luftdruck Luftfeuchtigkeit
    00:00 -12°C° 0,1 mm 2 m/S 620 mmHg 82%
    01:00 -12°C° 0,1 mm 2 m/S 620 mmHg 80%
    02:00 -12°C° 0,3 mm 2 m/S 621 mmHg 83%
    03:00 -10°C° 0,3 mm 2 m/S 622 mmHg 86%
    04:00 -9°C° 0,3 mm 2 m/S 623 mmHg 89%
    05:00 -9°C° 0,7 mm 2 m/S 623 mmHg 90%
    06:00 -9°C° 0,7 mm 2 m/S 624 mmHg 92%
    07:00 -9°C° 0,7 mm 2 m/S 625 mmHg 93%
    08:00 -9°C° 0,2 mm 2 m/S 625 mmHg 92%
    09:00 -8°C° 0,2 mm 2 m/S 626 mmHg 91%
    10:00 -8°C° 0,2 mm 2 m/S 626 mmHg 90%
    11:00 -8°C° 0,1 mm 2 m/S 627 mmHg 86%
    12:00 -7°C° 0,1 mm 2 m/S 627 mmHg 83%
    13:00 -7°C° 0,1 mm 2 m/S 627 mmHg 80%
    14:00 -7°C° 0 mm 1 m/S 626 mmHg 83%
    15:00 -8°C° 0 mm 1 m/S 626 mmHg 86%
    16:00 -9°C° 0 mm 1 m/S 626 mmHg 89%
    17:00 -10°C° 0 mm 1 m/S 626 mmHg 89%
    18:00 -11°C° 0 mm 1 m/S 626 mmHg 88%
    19:00 -14°C° 0 mm 2 m/S 626 mmHg 88%
    20:00 -14°C° 0 mm 2 m/S 627 mmHg 85%
    21:00 -13°C° 0 mm 2 m/S 627 mmHg 81%
    22:00 -13°C° 0 mm 2 m/S 628 mmHg 78%
    23:00 -11°C° 0,1 mm 1 m/S 628 mmHg 77%

    17 Dezember, Sonntag

    Zeit Temperatur Niederschläge Wind Luftdruck Luftfeuchtigkeit
    00:00 -10°C° 0,1 mm 1 m/S 628 mmHg 77%
    01:00 -10°C° 0,1 mm 1 m/S 628 mmHg 76%
    02:00 -10°C° 0,2 mm 1 m/S 628 mmHg 79%
    03:00 -10°C° 0,2 mm 1 m/S 628 mmHg 83%
    04:00 -9°C° 0,2 mm 1 m/S 629 mmHg 86%
    05:00 -9°C° 0,3 mm 1 m/S 629 mmHg 88%
    06:00 -9°C° 0,3 mm 1 m/S 629 mmHg 89%
    07:00 -9°C° 0,3 mm 1 m/S 630 mmHg 91%
    08:00 -8°C° 0,3 mm 1 m/S 630 mmHg 91%
    09:00 -8°C° 0,3 mm 1 m/S 631 mmHg 91%
    10:00 -7°C° 0,3 mm 1 m/S 631 mmHg 92%
    11:00 -7°C° 0,2 mm 1 m/S 632 mmHg 91%
    12:00 -7°C° 0,2 mm 2 m/S 632 mmHg 89%
    13:00 -7°C° 0,2 mm 2 m/S 632 mmHg 88%
    14:00 -8°C° 0,1 mm 2 m/S 632 mmHg 90%
    15:00 -9°C° 0,1 mm 2 m/S 632 mmHg 91%
    16:00 -9°C° 0,1 mm 2 m/S 632 mmHg 92%
    17:00 -10°C° 0 mm 1 m/S 632 mmHg 93%
    18:00 -11°C° 0 mm 1 m/S 632 mmHg 93%
    19:00 -12°C° 0 mm 1 m/S 632 mmHg 94%
    20:00 -13°C° 0 mm 1 m/S 632 mmHg 92%
    21:00 -14°C° 0 mm 1 m/S 633 mmHg 90%
    22:00 -16°C° 0 mm 2 m/S 633 mmHg 88%
    23:00 -16°C° 0 mm 2 m/S 633 mmHg 85%
    Mehr zeigen